Погода в Вад-Медани

Судан     14°23′32″N   33°31′35″E
темп.,
°C
ветер,
м/с
пор.,
м/с
влажн.,
%
обл.,
%
осадки,
мм/ч
давл.,
гПа
погр.,
м
13 мая, чт
чт1323:00+31юз4737100 0.0 1009223
02:00+29ю354384 0.0 1008171
05:00+28з234341 0.0 101063
08:00+31юз333592 0.0 1012647
11:00+35зюз322723 0.0 10112215
14:00+38з21195 0.0 10073345
17:00+38сз22175 0.0 10063438
20:00+36сз34195 0.0 1007114
14 мая, пт
пт1423:00+34с11215 0.0 100711
02:00+32зсз23275 0.0 100724
05:00+30ссв33135 0.0 100818
08:00+35св3475 0.0 1010610
11:00+39ссв4452 0.0 10092593
14:00+40с4351 0.0 10063349
17:00+40с4460 0.0 10053428
20:00+36ссв2280 0.0 100617
15 мая, сб
сб1523:00+34сз2293 0.0 100712
02:00+32ссз45105 0.0 100667
05:00+30с46104 0.0 100791
08:00+33ссз0181 0.0 1010515
11:00+38ссв1255 0.0 10081747
14:00+40ссз2345 0.0 10053442
17:00+40сз4445 0.0 10043653
20:00+36зсз3363 0.0 100539
16 мая, вс
вс1623:00+34ссз4471 0.0 100548
02:00+31сз4575 0.0 100555
05:00+29ссз3371 0.0 100614
08:00+34с3444 0.0 1008398
11:00+39ююз1233 0.0 10072037
14:00+41зюз4432 0.0 10043678
17:00+41з5440 0.0 10033846
20:00+36з3355 0.0 100536
17 мая, пн
пн1723:00+33зсз44731 0.0 100646
02:00+31зюз337100 0.0 100631
05:00+28юз4949100 0.0 1008230
08:00+33юз663972 0.0 1009793
11:00+39зюз331398 0.0 10082774
14:00+41з338100 0.0 10053913
17:00+41з3475 0.0 10044243
20:00+36зсз3474 0.0 100661